Weather History for Boonville, MO

Change the Weather History Date:

Sunday, March 10, 2013

  Actual Average Record
Temperature  
Mean Temperature 44 °F -  
Max Temperature 55 °F 52 °F 98 °F (2014)
Min Temperature 32 °F 29 °F 10 °F (1969)
Degree Days  
Heating Degree Days 21    
Moisture  
Dew Point 46 °F    
Average Humidity 93    
Maximum Humidity 99    
Minimum Humidity 75    
Precipitation  
Precipitation 0.75 in - - ()
Sea Level Pressure  
Sea Level Pressure 29.69 in    
Wind  
Wind Speed 9 mph (SSW)    
Max Wind Speed 15 mph    
Max Gust Speed 24 mph    
Visibility 8 miles    
Events Rain , Thunderstorm    
Averages and records for this station are not official NWS values.
T = Trace of Precipitation, MM = Missing Value Source: NWS Daily Summary

Daily Weather History Graph

Daily Weather History Graph

Search for Another Location

Airport:

Trip Planner

Search our weather history database for the weather conditions in past years. The results will help you decide how hot, cold, wet, or windy it might be!

Date:

Astronomy

Mar. 10, 2013 Rise Set
Actual Time 7:29 AM CDT 7:13 PM CDT
Civil Twilight 7:02 AM CDT 7:39 PM CDT
Nautical Twilight 6:31 AM CDT 8:10 PM CDT
Astronomical Twilight 6:00 AM CDT 8:41 PM CDT
Moon 6:29 AM CDT (3/10) 6:21 PM CDT (3/10)
Length of Visible Light 12h 36m
Length of Day
11h 43m
Waning Crescent, 2% of the Moon is Illuminated
Mar 10
Waning Crescent
Mar 11
New
Mar 19
First Quarter
Mar 27
Full
Apr 2
Last Quarter

Hourly Weather History & Observations

Time (CDT) Temp. Windchill Dew Point Humidity Pressure Visibility Wind Dir Wind Speed Gust Speed Precip Events Conditions
12:15 AM 53.6 °F - 49.3 °F 85% 29.71 in 7.0 mi South 15.0 mph - 0.02 in Rain Light Rain
12:35 AM 53.4 °F - 50.2 °F 89% 29.71 in 5.0 mi South 13.8 mph 24.2 mph 0.06 in Rain , Thunderstorm Light Thunderstorms and Rain
12:55 AM 53.1 °F - 51.3 °F 94% 29.72 in 7.0 mi South 9.2 mph 19.6 mph 0.10 in Rain Rain
1:15 AM 52.7 °F - 51.6 °F 96% 29.73 in 3.0 mi Calm Calm - 0.17 in Rain Heavy Rain
1:35 AM 52.2 °F - 51.6 °F 98% 29.67 in 4.0 mi East 8.1 mph - 0.23 in Rain Light Rain
1:55 AM 52.2 °F - 51.8 °F 99% 29.65 in 7.0 mi ESE 10.4 mph - 0.23 in   Overcast
3:15 AM 52.5 °F - 52.0 °F 98% 29.65 in 10.0 mi SE 10.4 mph - N/A   Overcast
3:35 AM 52.7 °F - 52.0 °F 97% 29.64 in 7.0 mi SE 9.2 mph - N/A   Mostly Cloudy
3:55 AM 52.7 °F - 52.0 °F 97% 29.63 in 7.0 mi SE 8.1 mph - N/A   Overcast
4:15 AM 52.9 °F - 52.3 °F 98% 29.63 in 7.0 mi SE 6.9 mph - N/A   Overcast
4:35 AM 53.2 °F - 52.7 °F 98% 29.63 in 7.0 mi SSE 6.9 mph - N/A   Overcast
4:55 AM 53.8 °F - 53.1 °F 97% 29.61 in 7.0 mi SE 5.8 mph - N/A   Overcast
5:15 AM 53.6 °F - 52.9 °F 97% 29.61 in 7.0 mi SSE 8.1 mph - N/A   Overcast
5:35 AM 53.4 °F - 52.9 °F 98% 29.62 in 7.0 mi SSE 8.1 mph - N/A   Overcast
5:55 AM 53.6 °F - 52.9 °F 97% 29.65 in 7.0 mi SSE 9.2 mph - N/A   Overcast
6:15 AM 53.8 °F - 53.4 °F 99% 29.67 in 7.0 mi South 5.8 mph - N/A   Overcast
6:35 AM 54.0 °F - 53.4 °F 98% 29.66 in 7.0 mi SSW 4.6 mph - N/A   Overcast
6:55 AM 54.0 °F - 53.4 °F 98% 29.65 in 7.0 mi South 10.4 mph - N/A   Overcast
7:15 AM 54.3 °F - 53.6 °F 97% 29.64 in 10.0 mi South 9.2 mph - N/A Rain Light Rain
7:35 AM 54.9 °F - 53.6 °F 96% 29.67 in 10.0 mi SSW 6.9 mph - N/A   Overcast
7:55 AM 54.9 °F - 53.1 °F 94% 29.71 in 10.0 mi SW 11.5 mph 16.1 mph N/A Rain Rain
8:15 AM 54.7 °F - 48.7 °F 80% 29.74 in 10.0 mi SW 12.7 mph 19.6 mph 0.01 in Rain Rain
8:35 AM 52.0 °F - 46.0 °F 80% 29.72 in 7.0 mi SSW 6.9 mph - 0.05 in Rain Rain
8:55 AM 50.4 °F - 47.5 °F 90% 29.71 in 7.0 mi SSW 6.9 mph - 0.09 in Rain Rain
9:15 AM 49.8 °F - 47.8 °F 93% 29.69 in 10.0 mi South 4.6 mph - 0.01 in Rain Light Rain
9:35 AM 49.3 °F - 48.0 °F 95% 29.68 in 10.0 mi SSW 3.5 mph - 0.02 in   Drizzle
9:55 AM 49.1 °F - 48.2 °F 97% 29.72 in 10.0 mi SSW 5.8 mph - 0.02 in Rain Light Rain
10:15 AM 49.3 °F - 48.4 °F 97% 29.74 in 7.0 mi SSW 5.8 mph - 0.03 in Rain Rain
10:35 AM 49.5 °F - 48.6 °F 97% 29.71 in 7.0 mi South 6.9 mph - 0.07 in Rain Rain
10:55 AM 49.5 °F - 48.6 °F 97% 29.68 in 10.0 mi SSE 5.8 mph - 0.08 in Rain Light Rain
11:15 AM 49.3 °F - 48.6 °F 97% 29.70 in 10.0 mi South 5.8 mph - 0.01 in Rain Light Rain
11:35 AM 49.3 °F - 48.7 °F 98% 29.71 in 7.0 mi SSE 9.2 mph - 0.05 in Rain Rain
11:55 AM 49.3 °F - 48.7 °F 98% 29.68 in 5.0 mi SE 11.5 mph - 0.15 in Rain Heavy Rain
12:35 PM 49.5 °F - 49.1 °F 99% 29.63 in 10.0 mi SE 5.8 mph - 0.06 in Rain Light Rain
12:55 PM 49.8 °F - 49.1 °F 97% 29.65 in 10.0 mi SE 8.1 mph - 0.06 in Rain Light Rain
1:15 PM 49.6 °F - 49.1 °F 98% 29.66 in 10.0 mi SSW 4.6 mph - N/A Rain Light Rain
1:35 PM 49.5 °F - 49.1 °F 99% 29.65 in 7.0 mi SSW 4.6 mph - 0.01 in   Drizzle
1:55 PM 49.8 °F - 49.5 °F 99% 29.63 in 10.0 mi South 4.6 mph - 0.01 in Rain Light Rain
2:15 PM 50.4 °F - 50.0 °F 99% 29.63 in 10.0 mi South 8.1 mph - N/A   Overcast
2:35 PM 51.3 °F - 50.2 °F 96% 29.62 in 10.0 mi South 9.2 mph - N/A   Overcast
2:55 PM 52.2 °F - 50.2 °F 93% 29.62 in 10.0 mi South 10.4 mph - N/A   Overcast
3:15 PM 53.1 °F - 50.2 °F 90% 29.62 in 10.0 mi South 11.5 mph - N/A   Overcast
3:35 PM 53.8 °F - 48.4 °F 82% 29.62 in 10.0 mi South 12.7 mph - N/A   Overcast
3:55 PM 55.0 °F - 47.3 °F 75% 29.62 in 10.0 mi South 8.1 mph - N/A   Overcast
4:15 PM 54.1 °F - 46.9 °F 77% 29.62 in 7.0 mi South 5.8 mph - N/A Rain Light Rain
4:35 PM 53.6 °F - 47.8 °F 81% 29.62 in 10.0 mi SSW 5.8 mph - 0.01 in Rain Rain
4:55 PM 53.1 °F - 47.8 °F 82% 29.63 in 10.0 mi SW 13.8 mph 21.9 mph 0.01 in Rain Light Rain
5:15 PM 51.1 °F - 47.7 °F 88% 29.64 in 10.0 mi WSW 11.5 mph 18.4 mph N/A Rain Rain
5:35 PM 49.5 °F - 45.7 °F 87% 29.65 in 10.0 mi WSW 15.0 mph 19.6 mph N/A   Overcast
5:55 PM 47.8 °F - 42.8 °F 83% 29.67 in 10.0 mi WSW 13.8 mph 24.2 mph N/A   Overcast
6:15 PM 45.7 °F 39.8 °F 40.8 °F 83% 29.68 in 10.0 mi West 12.7 mph 19.6 mph N/A   Overcast
6:35 PM 44.2 °F 38.0 °F 39.7 °F 84% 29.69 in 10.0 mi WSW 12.7 mph 19.6 mph N/A   Overcast
7:15 PM 41.4 °F 35.7 °F 39.7 °F 94% 29.72 in 5.0 mi West 9.2 mph 18.4 mph N/A   Overcast
7:35 PM 40.3 °F 34.4 °F 39.0 °F 95% 29.74 in 5.0 mi West 9.2 mph 16.1 mph N/A   Overcast
7:55 PM 39.9 °F 33.4 °F 38.7 °F 95% 29.74 in 3.0 mi West 10.4 mph 16.1 mph N/A   Drizzle
8:15 PM 39.4 °F 32.3 °F 38.3 °F 96% 29.74 in 5.0 mi West 11.5 mph 16.1 mph N/A   Overcast
8:35 PM 38.7 °F 31.8 °F 37.4 °F 95% 29.75 in 10.0 mi West 10.4 mph - N/A   Overcast
8:55 PM 37.9 °F 30.9 °F 36.5 °F 95% 29.76 in 10.0 mi West 10.4 mph 19.6 mph N/A   Overcast
9:15 PM 36.9 °F 28.2 °F 35.2 °F 94% 29.77 in 10.0 mi West 13.8 mph 21.9 mph N/A   Overcast
9:35 PM 35.8 °F 29.4 °F 34.3 °F 94% 29.78 in 10.0 mi West 8.1 mph 18.4 mph N/A   Overcast
9:55 PM 35.2 °F 29.5 °F 33.8 °F 94% 29.79 in 10.0 mi West 6.9 mph 19.6 mph N/A   Overcast
10:15 PM 34.9 °F 26.6 °F 33.3 °F 94% 29.80 in 7.0 mi West 11.5 mph 17.3 mph N/A   Overcast
10:35 PM 34.5 °F 24.8 °F 32.5 °F 92% 29.80 in 10.0 mi West 15.0 mph 20.7 mph N/A   Overcast
10:55 PM 34.0 °F 26.6 °F 32.0 °F 92% 29.81 in 10.0 mi West 9.2 mph 19.6 mph N/A   Overcast
11:15 PM 33.8 °F 24.8 °F 31.8 °F 92% 29.81 in 10.0 mi West 12.7 mph 19.6 mph N/A   Overcast
11:35 PM 33.6 °F 26.2 °F 31.3 °F 91% 29.82 in 10.0 mi West 9.2 mph - N/A   Overcast
12:15 AM 33.1 °F 24.9 °F 30.9 °F 92% 29.82 in 10.0 mi West 10.4 mph 17.3 mph N/A   Overcast
12:35 AM 33.1 °F 24.9 °F 30.4 °F 90% 29.81 in 10.0 mi West 10.4 mph 18.4 mph N/A   Overcast
12:55 AM 32.9 °F 23.7 °F 30.2 °F 90% 29.81 in 10.0 mi West 12.7 mph 19.6 mph N/A   Overcast